[[{"header":{"parameterUnit":"m.s-1","parameterCategory":1,"la1":30.2991,"la2":30.254,"lo1":-89.0895,"lo2":-89.0444,"dy":0.0017,"dx":0.0017,"nx":28,"ny":28,"refTime":"2024-03-26T21:00:00:Z","depth":0,"parameterNumber":2,"parameterNumberName":"U-component_of_WINDS"},"data":[0,0,0,0,0,0,0,0,0,0,0,0,0,0,0,0,0,0,0,0,0,0,0,0,0,0,0,0,0,0,0,0,0,0,0,0,0,0,0,0,0,0,0,0,0,0,0,0,0,0,0,0,0,0,0,0,0,0,0.9284,0.9284,0,0.9252,0.9252,0.9251,0.9233,0.9233,0.9233,0.9233,0.9197,0.9196,0.9195,0,0,0,0,0,0,0,0,0,0,0,0,0,0.9329,0.9328,0.9284,0.9284,0.9284,0.9252,0.9252,0.9251,0.9233,0.9233,0.9233,0.9233,0.9197,0.9196,0.9195,0,0,0,0,0,0,0,0,0,0,0,0,0,0.9304,0.9328,0.9285,0.9271,0.9269,0.9252,0.9252,0.9251,0.9233,0.9233,0.9233,0.9233,0.9197,0.9196,0.9195,0.9188,0,0,0.9191,0.919,0,0,0,0,0,0,0,0,0.9306,0.9303,0.9273,0.9272,0.927,0.9247,0.9254,0.923,0.9233,0.9247,0.9233,0.9233,0.9213,0.9211,0.9205,0.9186,0.9185,0.9191,0.919,0.9189,0.9189,0,0,0,0,0,0,0,0.9307,0.9304,0.9272,0.9273,0.9271,0.9266,0.9262,0.9249,0.9231,0.9245,0.9244,0.9241,0.9212,0.9206,0.9204,0.9184,0.9191,0.9189,0.9189,0.9188,0.9161,0.9161,0,0,0,0,0,0,0.9311,0.9305,0.9273,0.9271,0.9288,0.9265,0.9261,0.9254,0.9231,0.9227,0.9241,0.924,0.9208,0.9205,0.9202,0.9194,0.9189,0.9188,0.9187,0.916,0.9161,0.9161,0,0,0,0,0,0,0.9312,0.9309,0.9274,0.9288,0.9283,0.9264,0.9257,0.9254,0.9247,0.9227,0.9224,0.9238,0.9208,0.9204,0.9192,0.9192,0.9187,0.9186,0.916,0.916,0.9161,0.9176,0,0,0,0,0,0,0.9314,0.9309,0.9307,0.9288,0.9282,0.9265,0.9257,0.9253,0.9245,0.9244,0.9224,0.922,0.9208,0.9194,0.9191,0.919,0.9185,0.916,0.916,0.9161,0.9175,0.9176,0.9177,0,0,0,0,0,0.9315,0.9311,0.9307,0.9303,0.9279,0.9265,0.9262,0.9248,0.9245,0.9242,0.923,0.9221,0.9193,0.9193,0.9189,0.9188,0.916,0.916,0.9161,0.9175,0.9176,0.9177,0,0,0,0,0,0,0.9329,0.9308,0.9303,0.9293,0.9281,0.9262,0.9258,0.925,0.9238,0.9237,0.922,0.9216,0.9206,0.9196,0.9197,0.9181,0.9176,0.9175,0.9188,0.9189,0.919,0.9192,0.9184,0,0,0,0,0,0.9331,0.9322,0.9305,0.9297,0.9292,0.9276,0.9269,0.926,0.9247,0.9241,0.9228,0.9215,0.9203,0.9196,0.9184,0.9174,0.917,0.9171,0.9173,0.9174,0.9173,0.9168,0.9168,0.9161,0.9161,0.9161,0,0,0.9335,0.9322,0.9317,0.93,0.9289,0.928,0.9272,0.9262,0.9255,0.924,0.9228,0.9218,0.9202,0.9192,0.9186,0.9183,0.9174,0.9174,0.9175,0.9173,0.9168,0.9169,0.9169,0.9161,0.9161,0.9161,0,0,0.9336,0.9326,0.9319,0.931,0.9295,0.9285,0.9284,0.9266,0.926,0.9248,0.9237,0.9228,0.9208,0.9198,0.919,0.919,0.9181,0.9187,0.9192,0.9187,0.9188,0.9188,0.9189,0.9189,0.9186,0.9186,0.9187,0,0.9342,0.9329,0.9317,0.9308,0.9301,0.9289,0.9282,0.9273,0.9254,0.9249,0.9246,0.9222,0.9211,0.9198,0.9199,0.9193,0.919,0.9188,0.9189,0.9189,0.919,0.919,0.919,0.9187,0.9187,0.9187,0.9187,0,0.9337,0.9328,0.9324,0.9308,0.9301,0.9293,0.9279,0.9273,0.9266,0.9256,0.9245,0.9231,0.9216,0.9213,0.9205,0.92,0.9198,0.9192,0.9186,0.9191,0.9191,0.9191,0.9188,0.9188,0.9188,0.9188,0,0,0.9344,0.9324,0.9322,0.9316,0.93,0.9292,0.9284,0.9272,0.9267,0.9255,0.9248,0.9233,0.9228,0.9219,0.921,0.9206,0.9208,0.9201,0.92,0.9202,0.9201,0.9205,0.9205,0.9202,0.9202,0.9202,0.9203,0,0.9343,0.9329,0.9319,0.9309,0.93,0.929,0.9283,0.9272,0.9264,0.9255,0.9245,0.9235,0.9229,0.9224,0.922,0.9208,0.9207,0.9208,0.9195,0.9195,0.9198,0.9205,0.9209,0.921,0.9202,0.9202,0.9202,0,0.934,0.933,0.9319,0.9306,0.9302,0.9296,0.9284,0.9276,0.9264,0.9258,0.925,0.9241,0.9232,0.9228,0.9216,0.9217,0.9211,0.9205,0.9205,0.9202,0.9198,0.9202,0.9209,0.9209,0.9202,0.9202,0.9202,0,0.9346,0.9331,0.9322,0.9317,0.9301,0.9297,0.929,0.9278,0.9272,0.9261,0.9257,0.9246,0.9239,0.923,0.9219,0.9217,0.9208,0.9203,0.9202,0.9202,0.9199,0.9199,0.9205,0.9197,0.9197,0.9197,0.9197,0,0.9346,0.9339,0.9325,0.932,0.9313,0.9302,0.9295,0.9287,0.9277,0.927,0.926,0.9254,0.9239,0.9231,0.9222,0.9213,0.921,0.9205,0.9202,0.9205,0.9206,0.92,0.92,0.9197,0.9197,0.9197,0.9197,0,0.9351,0.9341,0.9332,0.9318,0.9314,0.931,0.9298,0.9292,0.9284,0.9275,0.9273,0.9259,0.9249,0.9238,0.9223,0.9217,0.9209,0.9206,0.9214,0.9212,0.9212,0.9212,0.9214,0.9213,0.9206,0.9206,0.9206,0,0.9351,0.9346,0.9332,0.9328,0.9321,0.9314,0.9308,0.9297,0.9291,0.9278,0.9274,0.9264,0.9255,0.924,0.9228,0.9218,0.9214,0.9215,0.9212,0.9215,0.9213,0.9213,0.9213,0.9215,0.9215,0.9216,0.9216,0,0.9352,0.9348,0.934,0.9331,0.9324,0.9316,0.9307,0.9304,0.9292,0.9285,0.9276,0.9269,0.9256,0.9245,0.9234,0.9226,0.9219,0.9217,0.9216,0.9219,0.9223,0.9221,0.9215,0.9217,0.9217,0.9217,0.9217,0.9216,0.9354,0.935,0.934,0.9332,0.9325,0.9317,0.9312,0.9304,0.9296,0.9285,0.9279,0.927,0.9259,0.9243,0.9236,0.9229,0.9226,0.9225,0.9224,0.9224,0.9225,0.9226,0.9226,0.9226,0.9226,0.9226,0.9226,0,0.9354,0.9348,0.9341,0.933,0.9324,0.9319,0.931,0.9305,0.9297,0.9288,0.928,0.927,0.9261,0.925,0.924,0.9236,0.9232,0.9233,0.9233,0.9231,0.9228,0.9229,0.9236,0.9236,0.9236,0.9236,0.9236,0.9236,0.9353,0.9346,0.9341,0.9331,0.9324,0.9316,0.9311,0.9304,0.9298,0.9287,0.9279,0.9273,0.9263,0.9253,0.9244,0.9241,0.9237,0.924,0.9236,0.9232,0.9231,0.923,0.9232,0.9239,0.9239,0.9239,0.9239,0.9239]},{"header":{"parameterUnit":"m.s-1","parameterCategory":1,"la1":30.2991,"la2":30.254,"lo1":-89.0895,"lo2":-89.0444,"dy":0.0017,"dx":0.0017,"nx":28,"ny":28,"refTime":"2024-03-26T21:00:00:Z","depth":0,"parameterNumber":3,"parameterNumberName":"V-component_of_WINDS"},"data":[0,0,0,0,0,0,0,0,0,0,0,0,0,0,0,0,0,0,0,0,0,0,0,0,0,0,0,0,0,0,0,0,0,0,0,0,0,0,0,0,0,0,0,0,0,0,0,0,0,0,0,0,0,0,0,0,0,0,-6.4959,-6.496,0,-6.5059,-6.506,-6.5061,-6.4969,-6.4965,-6.4962,-6.4958,-6.5058,-6.5063,-6.5069,0,0,0,0,0,0,0,0,0,0,0,0,0,-6.4687,-6.4692,-6.4959,-6.496,-6.4961,-6.5058,-6.506,-6.5061,-6.497,-6.4965,-6.4961,-6.4956,-6.5056,-6.5063,-6.507,0,0,0,0,0,0,0,0,0,0,0,0,0,-6.4798,-6.4694,-6.4959,-6.4927,-6.4926,-6.5058,-6.506,-6.5061,-6.4971,-6.4965,-6.496,-6.4954,-6.5053,-6.5062,-6.5071,-6.5238,0,0,-6.5099,-6.5103,0,0,0,0,0,0,0,0,-6.4792,-6.4808,-6.4931,-6.493,-6.4928,-6.4996,-6.5,-6.5121,-6.4972,-6.4954,-6.4958,-6.4952,-6.5041,-6.5051,-6.5082,-6.5243,-6.5247,-6.51,-6.5105,-6.5109,-6.5112,0,0,0,0,0,0,0,-6.4784,-6.4803,-6.4998,-6.4933,-6.4931,-6.4908,-6.4917,-6.5023,-6.5027,-6.4955,-6.4948,-6.4961,-6.5039,-6.5073,-6.5083,-6.5249,-6.5099,-6.5108,-6.5113,-6.5117,-6.5552,-6.5558,0,0,0,0,0,0,-6.478,-6.4797,-6.4995,-6.5001,-6.4845,-6.4917,-6.4928,-6.498,-6.5026,-6.5028,-6.4966,-6.4957,-6.506,-6.5073,-6.5087,-6.5286,-6.5109,-6.5118,-6.5123,-6.5546,-6.5554,-6.556,0,0,0,0,0,0,-6.4774,-6.4798,-6.4991,-6.4898,-6.492,-6.4928,-6.4987,-6.4984,-6.5018,-6.5034,-6.5034,-6.5,-6.5056,-6.5074,-6.5202,-6.5288,-6.5122,-6.513,-6.5539,-6.5548,-6.5557,-6.5686,0,0,0,0,0,0,-6.4767,-6.4797,-6.4861,-6.49,-6.4926,-6.5106,-6.4992,-6.499,-6.5035,-6.5023,-6.5066,-6.5068,-6.5053,-6.5188,-6.5211,-6.5298,-6.5137,-6.5531,-6.5543,-6.5554,-6.5674,-6.5699,-6.572,0,0,0,0,0,-6.4758,-6.4893,-6.4865,-6.4889,-6.5006,-6.5111,-6.5125,-6.5107,-6.5042,-6.5106,-6.5117,-6.5067,-6.5275,-6.5202,-6.5226,-6.5318,-6.5526,-6.554,-6.5553,-6.5664,-6.5694,-6.5719,0,0,0,0,0,0,-6.4864,-6.4897,-6.4867,-6.5019,-6.5063,-6.5095,-6.5176,-6.5139,-6.5201,-6.5188,-6.5161,-6.5171,-6.5307,-6.5324,-6.5243,-6.5482,-6.539,-6.5409,-6.5466,-6.5494,-6.5516,-6.551,-6.5145,0,0,0,0,0,-6.4905,-6.4988,-6.5012,-6.5144,-6.5168,-6.5168,-6.5213,-6.5195,-6.5239,-6.5257,-6.5276,-6.532,-6.5395,-6.5445,-6.5515,-6.5676,-6.5684,-6.5751,-6.5773,-6.5792,-6.5809,-6.5895,-6.5925,-6.5605,-6.5605,-6.5605,0,0,-6.4991,-6.5019,-6.5073,-6.5166,-6.5198,-6.5284,-6.5184,-6.5279,-6.5343,-6.527,-6.5393,-6.5409,-6.5456,-6.5601,-6.5666,-6.562,-6.5899,-6.5809,-6.5824,-6.5831,-6.5913,-6.5943,-6.597,-6.5614,-6.5613,-6.5611,0,0,-6.5191,-6.5221,-6.5334,-6.5369,-6.5419,-6.5418,-6.5445,-6.5484,-6.5492,-6.5615,-6.5563,-6.5637,-6.5767,-6.5803,-6.5838,-6.6053,-6.6009,-6.6076,-6.6195,-6.6279,-6.6305,-6.6327,-6.6404,-6.6432,-6.6093,-6.6093,-6.6093,0,-6.5291,-6.5419,-6.5397,-6.5497,-6.5539,-6.5479,-6.5593,-6.5627,-6.5697,-6.5727,-6.5675,-6.5838,-6.5865,-6.6018,-6.6071,-6.6101,-6.6131,-6.6072,-6.6303,-6.6325,-6.6346,-6.6419,-6.6448,-6.6101,-6.61,-6.6099,-6.6099,0,-6.554,-6.563,-6.5715,-6.5786,-6.5838,-6.5944,-6.5938,-6.5992,-6.597,-6.5975,-6.61,-6.6131,-6.6207,-6.6241,-6.6219,-6.6392,-6.6362,-6.6307,-6.6214,-6.6384,-6.6453,-6.6481,-6.6112,-6.611,-6.6107,-6.6105,0,0,-6.581,-6.5868,-6.59,-6.5931,-6.5982,-6.6051,-6.6154,-6.6229,-6.6277,-6.6327,-6.6413,-6.6525,-6.6475,-6.6515,-6.6496,-6.6571,-6.674,-6.6506,-6.6507,-6.655,-6.6932,-6.6974,-6.7007,-6.6711,-6.6716,-6.672,-6.6928,0,-6.6013,-6.6194,-6.6178,-6.6349,-6.6432,-6.6376,-6.6466,-6.6506,-6.6514,-6.6584,-6.6591,-6.6671,-6.6599,-6.6623,-6.6694,-6.6704,-6.6816,-6.6689,-6.679,-6.6794,-6.6782,-6.7042,-6.7087,-6.7282,-6.6955,-6.6959,-6.6962,0,-6.6274,-6.6335,-6.6516,-6.6555,-6.6589,-6.667,-6.6738,-6.6806,-6.685,-6.685,-6.6896,-6.6865,-6.6968,-6.6872,-6.7014,-6.6928,-6.6968,-6.698,-6.6987,-6.6996,-6.6889,-6.706,-6.7343,-6.7373,-6.7004,-6.7001,-6.6998,0,-6.6455,-6.6581,-6.6706,-6.6734,-6.6783,-6.6841,-6.6864,-6.6903,-6.695,-6.7008,-6.7038,-6.7108,-6.7146,-6.72,-6.7188,-6.7119,-6.7334,-6.7236,-6.7336,-6.7337,-6.7385,-6.7382,-6.768,-6.741,-6.7409,-6.7408,-6.7408,0,-6.6684,-6.6796,-6.6788,-6.6865,-6.6989,-6.6968,-6.7092,-6.7107,-6.7142,-6.722,-6.7175,-6.7249,-6.7229,-6.7302,-6.7293,-6.7413,-6.743,-6.7432,-6.7429,-6.7437,-6.7437,-6.7464,-6.7451,-6.7416,-6.7414,-6.7413,-6.7412,0,-6.6906,-6.6905,-6.7037,-6.7073,-6.7084,-6.7174,-6.7204,-6.7276,-6.7279,-6.7379,-6.7401,-6.7407,-6.749,-6.7484,-6.7577,-6.7571,-6.7719,-6.7699,-6.7705,-6.7701,-6.7802,-6.7793,-6.8128,-6.8171,-6.7872,-6.7875,-6.7877,0,-6.7053,-6.7139,-6.7184,-6.7233,-6.726,-6.7341,-6.7388,-6.7371,-6.7422,-6.7479,-6.7545,-6.7624,-6.7688,-6.7824,-6.7836,-6.7907,-6.7889,-6.8001,-6.7899,-6.7905,-6.7892,-6.7887,-6.7896,-6.8022,-6.8025,-6.8028,-6.803,0,-6.7314,-6.7309,-6.738,-6.7452,-6.751,-6.7565,-6.7614,-6.7657,-6.7645,-6.7704,-6.779,-6.7839,-6.7936,-6.8016,-6.8084,-6.8106,-6.8067,-6.8062,-6.8089,-6.8099,-6.81,-6.8102,-6.7761,-6.8055,-6.8052,-6.805,-6.8049,-6.8048,-6.7504,-6.7578,-6.7621,-6.7702,-6.7737,-6.7785,-6.7855,-6.7868,-6.794,-6.8018,-6.8002,-6.8099,-6.8141,-6.8229,-6.8258,-6.8333,-6.8292,-6.8331,-6.8341,-6.8351,-6.8363,-6.8087,-6.8345,-6.8344,-6.8343,-6.8343,-6.8342,0,-6.7763,-6.7788,-6.7863,-6.7935,-6.7998,-6.7956,-6.8009,-6.8065,-6.8151,-6.8194,-6.8258,-6.8356,-6.8434,-6.8452,-6.8526,-6.8582,-6.8566,-6.8602,-6.8598,-6.8604,-6.8395,-6.8365,-6.8614,-6.8614,-6.8614,-6.8614,-6.8614,-6.8614,-6.7905,-6.8029,-6.8029,-6.817,-6.8194,-6.8289,-6.8323,-6.8367,-6.8402,-6.8515,-6.8579,-6.8591,-6.8624,-6.87,-6.8769,-6.8772,-6.8802,-6.8846,-6.8842,-6.8646,-6.8619,-6.8593,-6.8564,-6.8852,-6.8852,-6.9045,-6.9047,-6.9048]}]]